Temp
-6 -6 -6 -7 -7 -7 -7 -7 -7 -7 -7 -7 -6 -6 -5 -5 -5 -5 -4 -4 -3 -3 -3 -3 -2 -2 -2
-7 -7 -6 -6 -6 -7 -7 -7 -8 -8 -8 -7 -7 -6 -6 -6 -6 -5 -5 -5 -5 -5 -5 -4 -3 -3 -2
-8 -6 -7 -7 -8 -7 -7 -8 -9 -9 -8 -9 -8 -7 -7 -6 -6 -6 -6 -6 -6 -5 -5 -4 -4 -3 -3
-7 -7 -7 -8 -8 -8 -8 -9 -9 -9 -9 -9 -9 -9 -8 -8 -7 -7 -7 -7 -6 -6 -5 -5 -5 -4 -3
-8 -8 -8 -8 -9 -9 -10 -9 -10 -10 -10 -10 -10 -10 -10 -9 -9 -9 -8 -8 -7 -7 -6 -6 -5 -5 -4
-8 -9 -8 -10 -10 -9 -10 -10 -10 -10 -10 -10 -10 -10 -9 -9 -9 -9 -8 -7 -7 -7 -6 -6 -5 -5 -5
-9 -10 -10 -9 -10 -10 -10 -10 -10 -10 -10 -11 -10 -10 -9 -9 -9 -9 -9 -8 -7 -7 -7 -6 -6 -5 -5
-10 -9 -9 -10 -10 -10 -10 -10 -10 -11 -11 -11 -10 -10 -10 -9 -8 -8 -9 -8 -8 -7 -7 -6 -6 -6 -6
-10 -10 -10 -10 -11 -10 -10 -11 -11 -11 -11 -11 -10 -11 -10 -10 -9 -9 -9 -8 -8 -8 -7 -7 -7 -6 -6
-10 -10 -9 -10 -11 -11 -11 -11 -11 -12 -11 -11 -11 -11 -10 -10 -9 -10 -9 -9 -9 -9 -9 -8 -7 -7 -7
-10 -10 -10 -10 -10 -10 -10 -11 -11 -11 -10 -11 -11 -10 -11 -10 -10 -9 -9 -8 -8 -7 -6 -6 -6 -7 -7
-11 -11 -10 -10 -10 -10 -10 -10 -10 -10 -10 -10 -10 -10 -10 -10 -10 -8 -7 -6 -7 -5 -6 -6 -5 -6 -6
-12 -11 -10 -10 -10 -10 -10 -10 -10 -9 -9 -9 -10 -10 -10 -10 -10 -8 -8 -6 -6 -6 -5 -5 -5 -5 -5
-12 -10 -10 -10 -10 -10 -10 -10 -10 -9 -8 -9 -9 -9 -8 -8 -8 -7 -7 -8 -5 -5 -5 -5 -4 -4 -4
-11 -10 -10 -10 -10 -10 -10 -10 -10 -10 -9 -8 -8 -8 -7 -6 -7 -7 -6 -5 -4 -4 -4 -4 -4 -4 -2
-10 -10 -10 -10 -10 -9 -9 -10 -10 -9 -9 -8 -8 -7 -5 -5 -6 -6 -5 -4 -4 -4 -4 -4 -5 -4 -2
-10 -9 -10 -9 -9 -9 -9 -9 -9 -9 -9 -8 -8 -8 -8 -7 -5 -5 -5 -5 -3 -4 -4 -4 -5 -4 -1
Height
1376 1371 1366 1361 1357 1353 1349 1345 1342 1339 1334 1328 1322 1317 1312 1308 1304 1301 1297 1295 1293 1292 1291 1290 1289 1288 1288
1368 1364 1360 1355 1349 1342 1338 1335 1330 1326 1320 1315 1310 1305 1301 1297 1293 1289 1286 1283 1280 1277 1275 1277 1275 1275 1275
1364 1358 1352 1347 1340 1334 1329 1323 1318 1314 1308 1303 1299 1296 1291 1286 1282 1278 1273 1270 1268 1266 1264 1264 1263 1263 1263
1358 1352 1346 1339 1334 1327 1316 1313 1306 1302 1297 1292 1289 1283 1279 1275 1270 1265 1261 1258 1256 1254 1252 1252 1251 1250 1250
1351 1345 1339 1333 1327 1319 1311 1303 1297 1293 1287 1280 1276 1270 1265 1261 1257 1252 1249 1245 1243 1241 1239 1238 1237 1237 1237
1346 1340 1331 1326 1319 1312 1305 1298 1284 1287 1279 1270 1266 1257 1252 1248 1244 1241 1237 1233 1230 1228 1226 1225 1224 1223 1223
1341 1333 1326 1320 1314 1306 1299 1292 1282 1274 1272 1260 1256 1248 1243 1237 1233 1228 1225 1221 1217 1215 1213 1212 1210 1210 1210
1335 1328 1322 1315 1309 1301 1293 1284 1275 1268 1266 1253 1248 1238 1232 1226 1220 1216 1212 1209 1206 1203 1200 1198 1196 1195 1194
1329 1322 1315 1308 1302 1294 1286 1278 1266 1260 1257 1250 1239 1230 1223 1213 1209 1205 1202 1199 1195 1190 1186 1183 1182 1181 1180
1319 1312 1307 1300 1295 1289 1281 1273 1264 1252 1251 1245 1234 1229 1214 1207 1202 1196 1189 1183 1180 1176 1172 1168 1167 1166 1163
1313 1306 1300 1294 1288 1282 1276 1269 1260 1250 1244 1240 1229 1223 1217 1201 1190 1187 1181 1173 1167 1161 1157 1153 1151 1150 1148
1309 1302 1295 1288 1282 1276 1269 1262 1256 1248 1238 1233 1224 1218 1210 1201 1189 1177 1173 1166 1159 1151 1146 1140 1137 1134 1133
1306 1299 1292 1285 1277 1269 1263 1256 1249 1241 1234 1227 1220 1213 1207 1198 1187 1176 1167 1156 1152 1145 1137 1131 1126 1121 1118
1303 1296 1289 1281 1273 1266 1258 1250 1242 1234 1229 1223 1216 1210 1200 1193 1185 1175 1166 1159 1149 1142 1134 1128 1121 1115 1110
1300 1293 1285 1277 1270 1263 1256 1249 1242 1234 1224 1219 1214 1207 1199 1191 1183 1175 1166 1158 1150 1142 1134 1125 1118 1111 1107
1297 1290 1282 1274 1266 1260 1255 1248 1241 1234 1227 1220 1212 1204 1198 1192 1185 1176 1167 1160 1152 1143 1135 1126 1117 1107 1101
1294 1287 1281 1273 1266 1258 1252 1247 1240 1235 1229 1222 1216 1210 1203 1196 1189 1183 1174 1165 1157 1148 1138 1131 1122 1111 1101
Wind_Speed
44 44 49 43 41 39 35 32 37 38 40 45 43 38 38 39 40 40 41 41 44 45 47 44 44 44 44
48 49 44 43 47 43 32 45 39 38 39 37 35 35 35 34 35 37 36 39 40 40 37 38 40 39 40
44 45 41 45 45 33 48 46 39 38 37 32 30 31 34 38 39 39 37 38 38 37 36 38 39 40 40
41 38 46 39 37 39 46 40 42 42 35 30 39 39 35 35 36 39 40 39 38 38 38 38 40 41 42
41 36 37 38 41 42 41 44 40 40 43 42 37 39 42 37 36 34 34 34 35 36 37 37 38 40 39
32 39 46 40 41 41 40 43 45 40 34 45 43 45 44 41 37 33 34 36 37 37 38 39 40 38 39
40 39 40 41 40 43 43 41 43 47 41 43 44 44 42 41 37 36 36 36 36 37 37 37 38 40 42
31 36 38 40 41 39 40 42 43 43 34 39 43 44 44 43 40 36 33 31 32 33 34 36 37 38 39
30 35 38 32 29 32 36 38 40 39 38 36 42 43 44 45 40 32 30 33 35 36 37 39 38 38 40
41 33 28 29 28 28 32 36 38 42 33 35 41 37 34 36 32 42 41 41 34 33 33 34 35 39 42
31 32 33 33 31 30 30 32 37 40 38 33 38 38 33 39 42 43 39 38 35 34 30 26 25 29 36
32 34 34 35 33 32 30 30 29 32 32 27 34 36 39 39 43 44 38 35 32 22 29 27 25 23 30
32 32 34 34 34 35 33 31 31 29 28 27 27 29 30 36 40 39 39 39 19 32 27 26 23 19 20
31 31 33 35 35 34 35 34 35 33 30 28 24 24 27 27 29 32 30 27 29 21 20 17 16 9 9
30 32 34 36 36 33 33 33 32 34 35 31 24 22 20 18 23 29 31 28 25 24 22 22 27 15 5
29 31 35 36 35 33 31 32 31 32 33 28 27 28 26 20 26 33 35 32 25 25 29 29 30 28 7
29 32 34 33 33 33 33 32 31 31 27 24 25 26 29 25 27 30 37 36 30 28 32 33 32 29 26
Wind_Direction
308 311 312 314 314 312 301 288 303 300 297 297 293 290 286 284 282 281 278 277 274 272 270 268 265 263 261
308 310 310 313 313 311 301 309 306 301 300 298 292 289 288 289 284 283 277 274 271 270 272 268 264 262 262
303 311 311 310 308 298 309 311 308 311 306 297 294 291 291 289 286 282 282 283 281 278 273 268 267 265 261
303 304 308 309 310 310 309 311 312 315 306 294 297 295 291 289 286 283 282 280 278 274 270 267 264 260 258
305 304 312 311 309 313 307 309 309 305 300 304 303 296 296 295 291 287 284 280 276 272 268 266 262 260 257
312 313 311 308 309 309 309 307 304 308 304 302 303 303 306 305 298 291 287 282 278 275 271 268 267 267 261
309 306 306 311 312 307 305 302 299 302 305 299 308 305 309 308 301 292 290 285 280 277 274 270 266 263 261
306 306 307 306 304 302 302 302 302 302 304 294 307 304 313 312 310 307 294 289 284 280 275 272 269 265 262
308 306 307 306 306 307 307 310 305 305 310 303 308 305 309 310 311 310 297 295 288 282 277 273 269 266 264
314 314 321 328 322 318 317 311 306 305 310 305 308 309 307 306 304 307 307 308 295 287 281 272 267 265 260
323 330 333 330 329 328 326 322 311 302 317 309 305 311 303 305 308 310 314 316 314 306 293 282 273 260 254
331 327 331 334 334 334 333 329 324 318 324 326 312 310 307 303 304 320 324 322 321 315 316 311 301 279 250
326 330 334 335 336 339 337 338 334 337 338 338 327 319 313 306 304 315 322 332 332 330 330 326 321 308 268
331 333 336 339 339 342 340 344 341 345 351 347 337 327 319 318 315 326 343 323 344 350 348 356 348 312 271
334 335 339 341 342 345 347 345 345 344 347 350 350 346 340 332 344 356 354 0 8 11 10 4 8 1 268
336 339 341 342 342 347 349 349 347 350 348 351 355 1 10 18 15 5 11 12 20 25 26 9 3 21 299
339 341 343 345 346 348 349 349 350 349 350 359 1 360 354 346 19 34 25 21 24 28 27 23 13 22 36